User: anonymous   Login
Location: *
(47.6569°N, 7.4256°E)
Time: 08:30:56
(UTC+00:00)
Language:

Cosmos 1975 - Orbit

View from above orbital plane
View from above orbital plane
View from above satellite
View from above satellite

Ground track
Ground track

The orbit data is extracted from the following two-line orbital elements,

1 19573U 88093A   20049.66731850  .00000744  00000-0  50601-4 0  9995
2 19573  82.5202 120.2115 0013426 205.9233 154.1323 15.04817485706632
Epoch (UTC): 18 February 2020 16:00:56
Eccentricity: 0.0013426
inclination: 82.5202°
perigee height: 543 km
apogee height: 561 km
right ascension of ascending node: 120.2115°
argument of perigee: 205.9233°
revolutions per day: 15.04817485
mean anomaly at epoch: 154.1323°
orbit number at epoch: 70663

The dashed part of the orbit path shows where the satellite is in the earth's shadow,  

DLR